Location: Asheville, NC
(35.6000°N, 82.5500°W)
Time: 15:16:33
(UTC-04:00)

Vanguard 1 - Pass Details

Date: 14 March 2018
Orbit: 650 x 3833 km, 34.3° (Epoch: 24 June)

Event Time Altitude Azimuth Distance (km) Brightness Sun altitude
Rises 05:52:07 0° 176° (S) 6,154 14.0 -23.1°
Reaches altitude 10° 05:58:38 10° 157° (SSE) 5,756 14.1 -21.8°
Maximum altitude 06:08:10 16° 125° (SE) 5,904 14.5 -19.9°
Drops below altitude 10° 06:19:11 10° 95° (E) 6,867 15.5 -17.7°
Sets 06:28:13 0° 79° (ENE) 7,967 16.6 -15.9°
